Location: La Trinit�
(48.1620°N, 3.4512°W)
Time: 02:11:03
(UTC+00:00)

BREEZE-M DEB (TANK) - Pass Details

Date: 08 May 2021
Orbit: 317 x 14224 km, 49.6° (Epoch: 13 June)

Event Time Altitude Azimuth Distance (km) Brightness Sun altitude
Rises 20:37:54 0° 277° (W) 2,101 6.7 -9.2°
Reaches altitude 10° 20:40:23 10° 239° (WSW) 1,248 4.7 -9.6°
Maximum altitude 20:41:29 12° 210° (SSW) 1,204 4.3 -9.7°
Drops below altitude 10° 20:42:46 10° 182° (S) 1,487 4.5 -9.9°
Enters shadow 20:43:33 - 171° (S) 1,768 4.8 -10.0°
